TimeEST,TemperatureF,Dew PointF,Humidity,Sea Level PressureIn,VisibilityMPH,Wind Direction,Wind SpeedMPH,Gust SpeedMPH,PrecipitationIn,Events,Conditions,WindDirDegrees,DateUTC
12:54 AM,15.1,10.9,84,30.30,10.0,West,3.5,-,N/A,,Clear,280,2012-02-21 05:54:00
1:54 AM,14.0,10.9,88,30.30,10.0,WSW,4.6,-,N/A,,Clear,250,2012-02-21 06:54:00
2:54 AM,12.0,8.1,84,30.30,10.0,Calm,Calm,-,N/A,,Clear,0,2012-02-21 07:54:00
3:54 AM,10.0,8.1,92,30.31,10.0,Calm,Calm,-,N/A,,Clear,0,2012-02-21 08:54:00
4:54 AM,9.0,6.1,88,30.31,10.0,SW,3.5,-,N/A,,Clear,230,2012-02-21 09:54:00
5:54 AM,9.0,6.1,88,30.31,10.0,Calm,Calm,-,N/A,,Clear,0,2012-02-21 10:54:00
6:54 AM,9.0,5.0,84,30.32,10.0,Calm,Calm,-,N/A,,Clear,0,2012-02-21 11:54:00
7:54 AM,14.0,10.0,84,30.32,10.0,Calm,Calm,-,N/A,,Clear,0,2012-02-21 12:54:00
8:54 AM,26.1,17.1,69,30.30,10.0,Calm,Calm,-,N/A,,Clear,0,2012-02-21 13:54:00
9:54 AM,30.0,16.0,56,30.27,10.0,Calm,Calm,-,N/A,,Clear,0,2012-02-21 14:54:00
10:54 AM,33.1,14.0,46,30.25,10.0,Calm,Calm,-,N/A,,Clear,0,2012-02-21 15:54:00
12:54 PM,37.0,14.0,39,30.17,10.0,SE,9.2,-,N/A,,Clear,140,2012-02-21 17:54:00
1:54 PM,37.0,12.9,37,30.14,10.0,South,6.9,-,N/A,,Clear,170,2012-02-21 18:54:00
2:54 PM,37.9,14.0,38,30.11,10.0,South,10.4,-,N/A,,Clear,180,2012-02-21 19:54:00
3:54 PM,37.0,14.0,39,30.07,10.0,South,6.9,-,N/A,,Clear,170,2012-02-21 20:54:00
4:54 PM,36.0,15.1,43,30.06,10.0,SSE,6.9,-,N/A,,Clear,160,2012-02-21 21:54:00
5:54 PM,33.1,18.0,54,30.04,10.0,SE,4.6,-,N/A,,Clear,140,2012-02-21 22:54:00
6:54 PM,32.0,19.9,61,30.01,10.0,Calm,Calm,-,N/A,,Clear,0,2012-02-21 23:54:00
8:54 PM,30.0,21.9,72,29.96,10.0,Calm,Calm,-,N/A,,Mostly Cloudy,0,2012-02-22 01:54:00
9:47 PM,30.2,24.8,80,29.93,3.0,South,3.5,-,0.00,Snow,Light Snow,180,2012-02-22 02:47:00
9:52 PM,30.2,24.8,80,29.93,1.8,South,3.5,-,0.00,Snow,Light Snow,180,2012-02-22 02:52:00
9:54 PM,30.0,25.0,82,29.95,1.5,South,3.5,-,0.00,Snow,Light Snow,180,2012-02-22 02:54:00
10:01 PM,30.2,26.6,86,29.92,1.0,South,3.5,-,0.00,Snow,Light Snow,180,2012-02-22 03:01:00
10:13 PM,30.2,26.6,86,29.91,1.5,Calm,Calm,-,0.01,Snow,Light Snow,0,2012-02-22 03:13:00
10:24 PM,30.2,28.4,93,29.90,2.0,Calm,Calm,-,0.01,Snow,Light Snow,0,2012-02-22 03:24:00
10:54 PM,30.0,28.0,92,29.91,1.2,Calm,Calm,-,0.01,Snow,Light Snow,0,2012-02-22 03:54:00
11:11 PM,30.2,28.4,93,29.87,1.0,Calm,Calm,-,0.02,Snow,Light Snow,0,2012-02-22 04:11:00
11:31 PM,28.4,28.4,100,29.86,1.8,Calm,Calm,-,0.03,Snow,Light Snow,0,2012-02-22 04:31:00
11:38 PM,30.2,28.4,93,29.86,2.0,Calm,Calm,-,0.03,Snow,Light Snow,0,2012-02-22 04:38:00
11:49 PM,30.2,28.4,93,29.85,4.0,Calm,Calm,-,0.03,Snow,Light Snow,0,2012-02-22 04:49:00
11:54 PM,28.9,28.9,100,29.87,3.0,Calm,Calm,-,0.03,Snow,Light Snow,0,2012-02-22 04:54:00